EW6810 Weather Reports


Display with metric or nautical units.
time (UTC)temp
F
wind
direction
speed
MPH
gust
MPH
rain 1hr
in
rain 24hr
in
rain mn
in
humidity
%
barometer
mb
20260506135101 53 204 0.0 3.0 0.00 0.00 0.00 88 1014.4
20260506134558 53 207 0.0 3.0 0.00 0.00 0.00 88 1014.4
20260506134057 54 202 1.0 3.0 0.00 0.00 0.00 88 1014.2
20260506133558 54 257 1.0 3.0 0.00 0.00 0.00 88 1014.1
20260506133133 54 234 0.0 3.0 0.00 0.00 0.00 88 1014.1
20260506132556 54 234 0.0 1.0 0.00 0.00 0.00 88 1014.1
20260506132055 54 234 0.0 3.0 0.00 0.00 0.00 88 1014.1
20260506131554 53 234 0.0 3.0 0.00 0.00 0.00 88 1014.0
20260506131058 53 138 0.0 2.0 0.00 0.00 0.00 88 1014.0
20260506130553 53 138 0.0 2.0 0.00 0.00 0.00 88 1014.0
20260506130134 54 138 0.0 2.0 0.00 0.00 0.00 87 1013.9
20260506125551 54 138 0.0 0.0 0.00 0.00 0.00 88 1013.9
20260506125051 53 138 0.0 0.0 0.00 0.00 0.00 88 1013.9
20260506124553 53 138 0.0 0.0 0.00 0.00 0.00 88 1013.9
20260506124051 53 138 0.0 1.0 0.00 0.00 0.00 88 1013.9
20260506123552 53 138 0.0 1.0 0.00 0.00 0.00 88 1013.9
20260506123050 53 138 0.0 1.0 0.00 0.00 0.00 88 1013.6
20260506122550 53 138 0.0 2.0 0.00 0.00 0.00 88 1013.6
20260506122049 53 138 0.0 2.0 0.00 0.00 0.00 88 1013.7
20260506121554 54 138 0.0 2.0 0.00 0.00 0.00 88 1013.6
20260506121048 54 138 0.0 2.0 0.00 0.00 0.00 88 1013.6
20260506120551 54 138 0.0 1.0 0.00 0.00 0.00 88 1013.6
20260506120048 54 138 0.0 2.0 0.00 0.00 0.00 88 1013.8
20260506115548 53 138 0.0 2.0 0.00 0.00 0.00 88 1013.7
20260506115050 53 138 0.0 1.0 0.00 0.00 0.00 88 1013.7
20260506114547 53 138 0.0 1.0 0.00 0.00 0.00 88 1013.7
20260506114046 53 138 0.0 3.0 0.00 0.00 0.00 88 1013.8
20260506113546 53 138 1.0 3.0 0.00 0.00 0.00 88 1013.7
20260506113051 53 348 0.0 2.0 0.00 0.00 0.00 88 1013.6
20260506112544 53 348 0.0 2.0 0.00 0.00 0.00 88 1013.6
20260506112047 53 348 1.0 2.0 0.00 0.00 0.00 88 1013.5
20260506111543 53 349 0.0 1.0 0.00 0.00 0.00 89 1013.4
20260506111043 53 349 0.0 1.0 0.00 0.00 0.00 88 1013.4
20260506110543 53 348 0.0 0.0 0.00 0.00 0.00 88 1013.2
20260506110043 53 348 0.0 1.0 0.00 0.00 0.00 88 1013.1
20260506105541 53 348 0.0 1.0 0.00 0.00 0.00 88 1013.1
20260506105041 53 348 0.0 2.0 0.00 0.00 0.00 88 1013.2
20260506104543 53 348 0.0 2.0 0.00 0.00 0.00 88 1013.1
20260506104039 53 348 0.0 1.0 0.00 0.00 0.00 88 1013.1
20260506103539 53 348 0.0 2.0 0.00 0.00 0.00 88 1013.1
20260506103040 53 348 0.0 2.0 0.00 0.00 0.00 88 1013.0
20260506102539 53 348 0.0 2.0 0.00 0.00 0.00 88 1013.1
20260506102039 53 349 0.0 2.0 0.00 0.00 0.00 88 1013.1
20260506101538 52 349 0.0 2.0 0.00 0.00 0.00 88 1013.1
20260506101037 52 349 0.0 1.0 0.00 0.00 0.00 88 1013.0
20260506100537 52 349 0.0 2.0 0.00 0.00 0.00 88 1013.0
20260506100037 53 349 0.0 2.0 0.00 0.00 0.00 88 1012.9
20260506095535 52 349 0.0 2.0 0.00 0.00 0.00 88 1012.9
20260506095035 53 349 0.0 1.0 0.00 0.00 0.00 88 1012.8
20260506094534 53 349 0.0 2.0 0.00 0.00 0.00 87 1012.7
20260506094032 53 349 0.0 2.0 0.00 0.00 0.00 87 1012.7
20260506093535 53 353 0.0 3.0 0.00 0.00 0.00 87 1012.6
20260506093134 53 353 0.0 3.0 0.00 0.00 0.00 87 1012.5
20260506092531 53 248 0.0 1.0 0.00 0.00 0.00 87 1012.5
20260506092030 53 248 0.0 2.0 0.00 0.00 0.00 87 1012.5
20260506091530 53 248 0.0 2.0 0.00 0.00 0.00 87 1012.4
20260506091031 53 248 0.0 2.0 0.00 0.00 0.00 87 1012.4
20260506090528 53 248 0.0 2.0 0.00 0.00 0.00 87 1012.4
20260506090036 53 248 0.0 2.0 0.00 0.00 0.00 86 1012.4
20260506085526 53 248 0.0 2.0 0.00 0.00 0.00 86 1012.4
20260506085028 53 248 1.0 2.0 0.00 0.00 0.00 86 1012.3
20260506084532 53 248 0.0 2.0 0.00 0.00 0.00 86 1012.3
20260506084027 53 248 0.0 2.0 0.00 0.00 0.00 86 1012.3
20260506083525 53 248 0.0 2.0 0.00 0.00 0.00 86 1012.2
20260506083030 54 248 1.0 2.0 0.00 0.00 0.00 86 1012.3
20260506082523 54 247 1.0 3.0 0.00 0.00 0.00 86 1012.2
20260506082023 54 247 1.0 3.0 0.00 0.00 0.00 86 1012.2
20260506081523 54 247 1.0 3.0 0.00 0.00 0.00 86 1012.2
20260506081023 54 232 1.0 3.0 0.00 0.00 0.00 86 1012.3
20260506080523 53 231 1.0 3.0 0.00 0.00 0.00 86 1012.2
20260506073522 54 196 0.0 2.0 0.00 0.00 0.00 85 1012.0
20260506073018 54 196 0.0 2.0 0.00 0.00 0.00 86 1011.9
20260506072517 54 196 0.0 2.0 0.00 0.00 0.00 86 1011.9
20260506072017 54 196 0.0 2.0 0.00 0.00 0.00 86 1011.9
20260506071519 54 196 0.0 2.0 0.00 0.00 0.00 85 1011.9
20260506071016 54 196 0.0 2.0 0.00 0.00 0.00 85 1011.9
20260506070518 54 196 0.0 1.0 0.00 0.00 0.00 85 1011.9
20260506062505 55 190 0.0 1.0 0.00 0.00 0.00 85 1011.7
20260506062005 55 190 0.0 2.0 0.00 0.00 0.00 84 1011.6
20260506061502 55 190 0.0 2.0 0.00 0.00 0.00 84 1011.6
20260506061001 55 189 1.0 2.0 0.00 0.00 0.00 84 1011.7
20260506060600 55 189 0.0 1.0 0.00 0.00 0.00 83 1011.5
20260506051048 56 189 1.0 2.0 0.00 0.00 0.00 82 1011.2
20260506050646 56 189 0.0 2.0 0.00 0.00 0.00 82 1011.2
20260506045046 56 189 0.0 2.0 0.00 0.00 0.00 81 1011.1
20260506044552 57 189 0.0 2.0 0.00 0.00 0.00 81 1011.0
20260506044046 57 189 0.0 2.0 0.00 0.00 0.00 81 1010.9
20260506043546 57 189 0.0 1.0 0.00 0.00 0.00 81 1010.9
20260506043046 57 189 0.0 1.0 0.00 0.00 0.00 80 1010.9
20260506042546 57 189 0.0 2.0 0.00 0.00 0.00 80 1010.9
20260506042046 57 189 0.0 2.0 0.00 0.00 0.00 80 1010.8
20260506041545 57 189 0.0 2.0 0.00 0.00 0.00 80 1010.9
20260506041045 57 189 0.0 2.0 0.00 0.00 0.00 79 1010.8
20260506040645 58 189 1.0 2.0 0.00 0.00 0.00 79 1010.7
20260506040036 58 189 0.0 2.0 0.00 0.00 0.00 79 1010.6
20260506035535 58 189 0.0 1.0 0.00 0.00 0.00 78 1010.7
20260506035035 58 189 0.0 1.0 0.00 0.00 0.00 78 1010.6
20260506034545 58 189 0.0 2.0 0.00 0.00 0.00 78 1010.6
20260506034034 58 189 0.0 2.0 0.00 0.00 0.00 77 1010.5
20260506033533 59 189 0.0 1.0 0.00 0.00 0.00 77 1010.5
20260506033033 59 189 0.0 2.0 0.00 0.00 0.00 77 1010.4
20260506032533 59 189 0.0 2.0 0.00 0.00 0.00 76 1010.3
20260506032034 59 189 0.0 1.0 0.00 0.00 0.00 76 1010.2
20260506031543 60 189 0.0 2.0 0.00 0.00 0.00 75 1010.2
20260506031033 60 189 0.0 2.0 0.00 0.00 0.00 75 1010.2
20260506030634 60 188 0.0 1.0 0.00 0.00 0.00 74 1010.2
20260506030046 60 189 0.0 1.0 0.00 0.00 0.00 74 1010.2
20260506025547 60 188 0.0 1.0 0.00 0.00 0.00 73 1010.2
20260506025046 61 188 0.0 2.0 0.00 0.00 0.00 72 1010.2
20260506024552 61 189 0.0 2.0 0.00 0.00 0.00 72 1010.0
20260506024046 61 191 0.0 4.0 0.00 0.00 0.00 71 1010.0
20260506023546 62 190 1.0 4.0 0.00 0.00 0.00 71 1010.0
20260506023054 62 180 1.0 3.0 0.00 0.00 0.00 70 1010.0
20260506022545 62 209 0.0 3.0 0.00 0.00 0.00 70 1010.1
20260506022045 62 182 1.0 3.0 0.00 0.00 0.00 69 1010.0
20260506021545 63 280 0.0 2.0 0.00 0.00 0.00 69 1010.1
20260506021046 63 280 0.0 3.0 0.00 0.00 0.00 69 1010.0
20260506020645 63 186 0.0 4.0 0.00 0.00 0.00 68 1009.9
20260506020037 63 272 1.0 5.0 0.00 0.00 0.00 68 1010.0
20260506015537 63 227 1.0 6.0 0.00 0.00 0.00 68 1009.9
20260506015037 63 142 1.0 6.0 0.00 0.00 0.00 67 1010.0
20260506014536 64 209 0.0 3.0 0.00 0.00 0.00 68 1010.0
20260506014035 64 180 1.0 4.0 0.00 0.00 0.00 67 1010.0
20260506013535 64 209 1.0 5.0 0.00 0.00 0.00 66 1009.9
20260506013035 64 161 1.0 5.0 0.00 0.00 0.00 67 1009.9
20260506012536 64 173 1.0 7.0 0.00 0.00 0.00 66 1010.0
20260506012036 65 142 2.0 7.0 0.00 0.00 0.00 64 1010.0
20260506011541 65 211 1.0 5.0 0.00 0.00 0.00 65 1010.0
20260506011034 65 153 1.0 5.0 0.00 0.00 0.00 65 1010.0
20260506010534 66 179 2.0 6.0 0.00 0.00 0.00 64 1010.1
20260506010050 66 174 2.0 4.0 0.00 0.00 0.00 64 1010.1
20260506005533 66 59 1.0 5.0 0.00 0.00 0.00 63 1010.1
20260506005034 67 75 0.0 5.0 0.00 0.00 0.00 63 1010.1
20260506004533 67 88 1.0 5.0 0.00 0.00 0.00 62 1010.0
20260506004033 67 136 1.0 5.0 0.00 0.00 0.00 64 1010.1
20260506003533 68 159 1.0 5.0 0.00 0.00 0.00 62 1010.1
20260506003033 68 111 0.0 7.0 0.00 0.00 0.00 62 1010.1
20260506002533 67 50 1.0 5.0 0.00 0.00 0.00 63 1010.0
20260506002032 67 152 1.0 5.0 0.00 0.00 0.00 62 1010.0
20260506001533 68 117 2.0 7.0 0.00 0.00 0.00 61 1010.0
20260506001033 67 155 3.0 7.0 0.00 0.00 0.00 61 1010.1
20260506000502 68 73 1.0 4.0 0.00 0.00 0.00 61 1010.1
20260506000101 68 201 1.0 8.0 0.00 0.00 0.00 60 1010.1
20260505235559 68 143 2.0 8.0 0.00 0.00 0.00 59 1010.2
20260505235058 69 224 1.0 5.0 0.00 0.00 0.00 59 1010.1
20260505234557 68 38 1.0 8.0 0.00 0.00 0.00 60 1010.2
20260505234057 68 169 1.0 8.0 0.00 0.00 0.00 59 1010.2
20260505233553 69 82 1.0 4.0 0.00 0.00 0.00 60 1010.3
20260505233104 68 84 2.0 6.0 0.00 0.00 0.00 59 1010.2
20260505232550 70 149 1.0 6.0 0.00 0.00 0.00 57 1010.3
20260505232049 69 167 1.0 4.0 0.00 0.00 0.00 58 1010.4
20260505231549 70 157 1.0 5.0 0.00 0.00 0.00 59 1010.4
20260505231051 69 152 2.0 5.0 0.00 0.00 0.00 59 1010.4
20260505230600 70 198 1.0 5.0 0.00 0.00 0.00 56 1010.4
20260505230101 70 70 1.0 5.0 0.00 0.00 0.00 58 1010.5
20260505225600 69 184 1.0 7.0 0.00 0.00 0.00 58 1010.6
20260505225058 70 144 3.0 7.0 0.00 0.00 0.00 56 1010.7
20260505224558 70 182 2.0 4.0 0.00 0.00 0.00 57 1010.6
20260505224056 70 132 1.0 6.0 0.00 0.00 0.00 57 1010.7
20260505223554 69 115 1.0 8.0 0.00 0.00 0.00 57 1010.7
20260505223052 70 166 2.0 8.0 0.00 0.00 0.00 57 1010.8
20260505222551 70 168 2.0 7.0 0.00 0.00 0.00 55 1010.7
20260505222050 70 123 1.0 7.0 0.00 0.00 0.00 58 1010.7
20260505221550 69 154 2.0 6.0 0.00 0.00 0.00 59 1010.8
20260505221046 68 119 2.0 9.0 0.00 0.00 0.00 59 1010.8
20260505220648 69 182 3.0 9.0 0.00 0.00 0.00 59 1010.8
20260505220043 69 234 2.0 8.0 0.00 0.00 0.00 57 1010.8
20260505215542 68 177 2.0 8.0 0.00 0.00 0.00 60 1010.9
20260505215040 68 194 2.0 7.0 0.00 0.00 0.00 59 1010.9
20260505214539 69 223 1.0 6.0 0.00 0.00 0.00 58 1010.9
20260505214040 69 150 2.0 6.0 0.00 0.00 0.00 58 1011.0
20260505213536 69 188 1.0 5.0 0.00 0.00 0.00 60 1011.0
20260505213035 68 106 2.0 6.0 0.00 0.00 0.00 58 1011.1
20260505212534 68 201 2.0 7.0 0.00 0.00 0.00 59 1011.1
20260505212033 69 194 2.0 7.0 0.00 0.00 0.00 58 1011.1
20260505211531 69 161 2.0 6.0 0.00 0.00 0.00 58 1011.1
20260505211029 69 135 2.0 6.0 0.00 0.00 0.00 58 1011.1
20260505210529 67 216 2.0 6.0 0.00 0.00 0.00 62 1011.1
20260505210028 67 71 2.0 6.0 0.00 0.00 0.00 61 1011.1
20260505205529 69 205 1.0 6.0 0.00 0.00 0.00 58 1011.2
20260505205025 68 147 2.0 6.0 0.00 0.00 0.00 62 1011.2
20260505204524 68 121 1.0 10.0 0.00 0.00 0.00 62 1011.3
20260505204024 67 52 2.0 10.0 0.00 0.00 0.00 62 1011.3
20260505203522 67 213 1.0 7.0 0.00 0.00 0.00 62 1011.3
20260505203029 67 163 3.0 7.0 0.00 0.00 0.00 61 1011.3
20260505202523 67 272 2.0 8.0 0.00 0.00 0.00 63 1011.3
20260505202017 67 141 1.0 8.0 0.00 0.00 0.00 66 1011.3
20260505201518 66 192 2.0 5.0 0.00 0.00 0.00 64 1011.4
20260505201015 66 159 3.0 5.0 0.00 0.00 0.00 64 1011.4
20260505200514 66 130 0.0 5.0 0.00 0.00 0.00 65 1011.4
20260505200012 67 153 2.0 5.0 0.00 0.00 0.00 64 1011.4
20260505195511 66 170 1.0 5.0 0.00 0.00 0.00 65 1011.4
20260505195009 65 170 1.0 5.0 0.00 0.00 0.00 68 1011.4
20260505194507 65 213 2.0 5.0 0.00 0.00 0.00 68 1011.4
20260505194007 64 184 1.0 6.0 0.00 0.00 0.00 68 1011.4
20260505193505 65 165 3.0 6.0 0.00 0.00 0.00 68 1011.5
20260505193003 64 73 2.0 6.0 0.00 0.00 0.00 69 1011.4
20260505192504 64 96 1.0 6.0 0.00 0.00 0.00 71 1011.4
20260505192101 63 130 2.0 7.0 0.00 0.00 0.00 71 1011.3
20260505191609 63 147 1.0 8.0 0.00 0.00 0.00 69 1011.4
20260505191101 63 130 2.0 8.0 0.00 0.00 0.00 70 1011.3
20260505190558 63 125 2.0 5.0 0.00 0.00 0.00 71 1011.4
20260505185553 63 165 2.0 6.0 0.00 0.00 0.00 71 1011.4
20260505185052 63 36 2.0 6.0 0.00 0.00 0.00 71 1011.4
20260505184550 63 352 1.0 8.0 0.00 0.00 0.00 72 1011.5
20260505184049 62 49 1.0 8.0 0.00 0.00 0.00 74 1011.4
20260505183547 62 150 2.0 6.0 0.00 0.00 0.00 72 1011.4
20260505183110 63 160 1.0 6.0 0.00 0.00 0.00 72 1011.4
20260505182544 63 64 2.0 6.0 0.00 0.00 0.00 72 1011.3
20260505182043 62 152 1.0 5.0 0.00 0.00 0.00 73 1011.3
20260505181542 61 37 2.0 6.0 0.00 0.00 0.00 74 1011.3
20260505181040 61 190 2.0 5.0 0.00 0.00 0.00 74 1011.3
20260505180640 61 77 1.0 5.0 0.00 0.00 0.00 75 1011.3
20260505180021 61 111 2.0 9.0 0.00 0.00 0.00 75 1011.3
20260505175519 60 174 2.0 5.0 0.00 0.00 0.00 75 1011.3
20260505175021 61 153 1.0 7.0 0.00 0.00 0.00 75 1011.4
20260505174516 61 39 2.0 7.0 0.00 0.00 0.00 75 1011.3
20260505174016 60 65 1.0 6.0 0.00 0.00 0.00 75 1011.3
20260505173514 61 157 1.0 4.0 0.00 0.00 0.00 75 1011.3
20260505173011 61 136 0.0 6.0 0.00 0.00 0.00 75 1011.2
20260505172511 60 215 1.0 6.0 0.00 0.00 0.00 75 1011.2
20260505172008 60 45 1.0 8.0 0.00 0.00 0.00 75 1011.2
20260505171507 60 54 1.0 8.0 0.00 0.00 0.00 75 1011.2
20260505171006 59 83 1.0 5.0 0.00 0.00 0.00 76 1011.3
20260505170506 59 191 1.0 5.0 0.00 0.00 0.00 76 1011.3
20260505170009 60 134 2.0 5.0 0.00 0.00 0.00 75 1011.2
20260505165504 59 186 2.0 6.0 0.00 0.00 0.00 75 1011.3
20260505165002 59 161 2.0 5.0 0.00 0.00 0.00 75 1011.2
20260505164601 60 130 1.0 3.0 0.00 0.00 0.00 75 1011.1
20260505164102 59 144 0.0 5.0 0.00 0.00 0.00 76 1011.1
20260505163558 59 121 1.0 7.0 0.00 0.00 0.00 76 1011.2
20260505163057 59 155 2.0 7.0 0.00 0.00 0.00 76 1011.1
20260505162555 59 223 1.0 3.0 0.00 0.00 0.00 76 1011.1
20260505162054 58 204 1.0 4.0 0.00 0.00 0.00 78 1011.1
20260505161614 58 150 1.0 4.0 0.00 0.00 0.00 77 1011.1
20260505161052 58 147 2.0 4.0 0.00 0.00 0.00 77 1011.1
20260505160549 58 175 1.0 4.0 0.00 0.00 0.00 78 1011.1
20260505153043 56 23 0.0 3.0 0.00 0.00 0.00 80 1010.9
20260505152540 55 23 1.0 3.0 0.00 0.00 0.00 80 1010.9
20260505152040 55 23 1.0 3.0 0.00 0.00 0.00 81 1010.9
20260505151539 54 23 1.0 3.0 0.00 0.00 0.00 81 1010.8
20260505151037 54 23 1.0 2.0 0.00 0.00 0.00 81 1010.8
20260505150638 54 23 1.0 2.0 0.00 0.00 0.00 81 1010.7
20260505140526 54 23 0.0 2.0 0.00 0.00 0.00 79 1010.2